Tracking 28790 objects as of 19-Apr-2024
HD Live streaming from Space Station
objects crossing your sky now

THORAD AGENA D DEB

Track THORAD AGENA D DEB now!
10-day predictions


NORAD ID: 4681
Int'l Code: 1970-025BE
Perigee: 1,050.8 km
Apogee: 1,424.0 km
Inclination: 99.9 °
Period: 110.1 minutes
Semi major axis: 7608 km
RCS: 0.0728 m2 (small)
Launch date: April 8, 1970
Source: United States (US)
Launch site: AIR FORCE WESTERN TEST RANGE (AFWTR)

Note: This is SATELLITE DEBRIS
Your satellite tracking list
Your tracking list is empty




NASA's NSSDC Master Catalog

Two Line Element Set (TLE):
1 04681U 70025BE  24109.69773300  .00000716  00000-0  19267-2 0  9995
2 04681  99.9121  21.3793 0245248  56.9320  10.2261 13.08172258571931
Source of the keplerian elements: AFSPC